Location: Newark
(40.9833°N, 0.0333°W)
Time: 10:37:00
(UTC+00:00)

Hubble Space Telescope - Visible Passes

Search period start: 21 March 2019 00:00
Search period end: 31 March 2019 00:00
Orbit: 537 x 540 km, 28.5° (Epoch: 20 March)

Date Brightness Start Highest point End Pass type
(mag) Time Alt. Az. Time Alt. Az. Time Alt. Az.
25 Mar 3.3 20:07:31 10° SSW 20:07:44 11° SSW 20:07:44 11° SSW visible
26 Mar 3.0 19:56:39 10° SSW 19:58:02 13° S 19:58:02 13° S visible
27 Mar 2.8 19:45:52 10° SSW 19:48:03 14° S 19:48:17 14° S visible
28 Mar 2.8 19:35:10 10° SSW 19:37:26 14° S 19:38:28 13° SSE visible
29 Mar 2.9 19:24:33 10° SW 19:26:48 14° S 19:28:38 11° SSE visible
30 Mar 3.0 19:14:00 10° SW 19:16:12 14° S 19:18:24 10° SSE visible
